QPF
0.00 0.00 0.00 0.00 0.00 0.00 0.00 0.00 0.01 0.01 0.01 0.01 0.01 0.01 0.01 0.01 0.00 0.01 0.01 0.01 0.01 0.02 0.02 0.03 0.04 0.05 0.06 0.09 0.09 0.08 0.07 0.09 0.08 0.05 0.04 0.04 0.03 0.03 0.02 0.01 0.01 0.01 0.02 0.02
0.00 0.00 0.00 0.00 0.00 0.00 0.00 0.00 0.01 0.01 0.01 0.01 0.01 0.01 0.01 0.01 0.01 0.01 0.01 0.02 0.02 0.02 0.02 0.01 0.01 0.02 0.02 0.04 0.06 0.07 0.07 0.10 0.11 0.09 0.07 0.06 0.05 0.04 0.03 0.02 0.02 0.01 0.01 0.01
0.00 0.00 0.00 0.01 0.00 0.00 0.00 0.01 0.01 0.01 0.01 0.01 0.01 0.01 0.00 0.01 0.00 0.01 0.01 0.02 0.02 0.02 0.01 0.01 0.01 0.01 0.01 0.01 0.03 0.06 0.08 0.08 0.09 0.12 0.11 0.09 0.07 0.05 0.04 0.03 0.03 0.03 0.02 0.02
0.01 0.01 0.02 0.02 0.00 0.00 0.00 0.00 0.00 0.00 0.00 0.00 0.01 0.01 0.01 0.01 0.01 0.01 0.01 0.01 0.01 0.02 0.01 0.01 0.01 0.01 0.02 0.02 0.02 0.05 0.09 0.10 0.07 0.07 0.07 0.06 0.06 0.05 0.04 0.03 0.03 0.03 0.02 0.03
0.01 0.01 0.01 0.01 0.01 0.01 0.01 0.01 0.00 0.00 0.00 0.00 0.00 0.01 0.01 0.01 0.01 0.01 0.01 0.01 0.01 0.01 0.02 0.02 0.01 0.01 0.02 0.02 0.02 0.04 0.06 0.08 0.07 0.05 0.05 0.05 0.04 0.03 0.02 0.02 0.01 0.02 0.02 0.03
0.01 0.01 0.01 0.01 0.00 0.00 0.01 0.01 0.00 0.00 0.00 0.00 0.00 0.00 0.01 0.01 0.01 0.00 0.00 0.01 0.01 0.02 0.02 0.02 0.02 0.01 0.03 0.03 0.02 0.03 0.05 0.08 0.06 0.05 0.05 0.06 0.06 0.04 0.02 0.01 0.01 0.01 0.01 0.02
0.01 0.01 0.01 0.00 0.00 0.00 0.01 0.01 0.00 0.00 0.00 0.00 0.01 0.00 0.00 0.00 0.00 0.00 0.01 0.00 0.00 0.01 0.01 0.01 0.01 0.01 0.03 0.02 0.02 0.03 0.05 0.08 0.09 0.08 0.08 0.09 0.08 0.06 0.04 0.02 0.01 0.01 0.01 0.01
0.01 0.01 0.01 0.01 0.00 0.01 0.01 0.00 0.00 0.00 0.00 0.00 0.00 0.01 0.01 0.00 0.00 0.01 0.01 0.01 0.01 0.01 0.01 0.01 0.01 0.01 0.01 0.01 0.01 0.03 0.04 0.05 0.08 0.09 0.07 0.06 0.06 0.05 0.03 0.02 0.02 0.01 0.01 0.01
0.01 0.01 0.01 0.01 0.01 0.00 0.00 0.00 0.00 0.00 0.00 0.00 0.01 0.01 0.01 0.00 0.00 0.00 0.00 0.00 0.01 0.02 0.01 0.01 0.01 0.01 0.01 0.01 0.01 0.02 0.04 0.05 0.06 0.07 0.07 0.04 0.03 0.03 0.02 0.02 0.01 0.01 0.01 0.01
0.00 0.00 0.00 0.01 0.00 0.00 0.00 0.00 0.00 0.00 0.00 0.00 0.00 0.00 0.00 0.00 0.00 0.00 0.01 0.01 0.01 0.01 0.02 0.02 0.02 0.02 0.01 0.01 0.01 0.01 0.03 0.05 0.05 0.06 0.06 0.06 0.04 0.02 0.01 0.01 0.01 0.01 0.01 0.01
0.00 0.00 0.00 0.00 0.00 0.00 0.00 0.00 0.00 0.01 0.00 0.00 0.01 0.01 0.00 0.00 0.00 0.01 0.01 0.01 0.02 0.01 0.02 0.02 0.02 0.02 0.01 0.01 0.01 0.01 0.02 0.03 0.05 0.07 0.06 0.07 0.06 0.03 0.01 0.01 0.00 0.00 0.01 0.01
0.00 0.00 0.00 0.00 0.00 0.00 0.00 0.00 0.01 0.01 0.01 0.00 0.00 0.00 0.00 0.00 0.00 0.01 0.01 0.01 0.03 0.03 0.02 0.02 0.02 0.02 0.01 0.01 0.01 0.01 0.01 0.02 0.03 0.04 0.05 0.06 0.06 0.03 0.02 0.00 0.00 0.00 0.00 0.00
0.00 0.00 0.00 0.00 0.00 0.00 0.00 0.00 0.01 0.00 0.00 0.00 0.00 0.00 0.00 0.00 0.01 0.01 0.01 0.01 0.02 0.03 0.02 0.02 0.02 0.01 0.01 0.01 0.01 0.01 0.02 0.02 0.01 0.02 0.02 0.03 0.03 0.03 0.02 0.01 0.00 0.00 0.00 0.00
0.00 0.00 0.00 0.00 0.00 0.00 0.00 0.00 0.00 0.00 0.00 0.00 0.00 0.00 0.00 0.01 0.01 0.01 0.01 0.01 0.02 0.02 0.02 0.01 0.01 0.01 0.01 0.01 0.01 0.01 0.01 0.02 0.02 0.02 0.02 0.02 0.01 0.01 0.01 0.00 0.00 0.00 0.00 0.00
0.00 0.00 0.00 0.00 0.00 0.00 0.00 0.00 0.00 0.00 0.00 0.01 0.00 0.00 0.00 0.00 0.01 0.01 0.01 0.01 0.01 0.01 0.01 0.01 0.01 0.01 0.00 0.01 0.01 0.01 0.01 0.01 0.01 0.01 0.01 0.01 0.00 0.00 0.00 0.00 0.00 0.01 0.01 0.01
0.00 0.00 0.00 0.00 0.00 0.00 0.00 0.00 0.00 0.00 0.00 0.00 0.00 0.00 0.00 0.00 0.01 0.01 0.01 0.01 0.01 0.01 0.01 0.00 0.00 0.00 0.00 0.00 0.00 0.01 0.00 0.00 0.00 0.00 0.00 0.00 0.00 0.01 0.00 0.00 0.00 0.00 0.01 0.01
0.00 0.00 0.00 0.00 0.00 0.00 0.00 0.00 0.00 0.00 0.00 0.00 0.00 0.00 0.00 0.00 0.00 0.00 0.00 0.01 0.01 0.01 0.00 0.00 0.00 0.00 0.00 0.00 0.01 0.00 0.00 0.00 0.00 0.01 0.01 0.01 0.00 0.00 0.00 0.00 0.01 0.01 0.00 0.01
0.00 0.00 0.00 0.00 0.00 0.01 0.00 0.00 0.00 0.00 0.00 0.00 0.00 0.00 0.00 0.00 0.00 0.00 0.00 0.00 0.00 0.00 0.00 0.00 0.00 0.00 0.00 0.00 0.00 0.00 0.00 0.00 0.01 0.01 0.01 0.00 0.00 0.00 0.01 0.01 0.01 0.01 0.01 0.01
0.00 0.00 0.00 0.00 0.00 0.01 0.01 0.00 0.00 0.00 0.00 0.00 0.00 0.00 0.00 0.00 0.00 0.00 0.00 0.00 0.00 0.00 0.00 0.00 0.00 0.00 0.00 0.00 0.00 0.00 0.00 0.01 0.01 0.01 0.00 0.00 0.00 0.01 0.01 0.01 0.01 0.01 0.01 0.01
0.00 0.00 0.00 0.00 0.01 0.00 0.00 0.00 0.00 0.00 0.00 0.00 0.00 0.00 0.00 0.00 0.00 0.00 0.00 0.00 0.00 0.00 0.00 0.00 0.00 0.00 0.00 0.00 0.00 0.00 0.00 0.01 0.01 0.01 0.00 0.00 0.00 0.01 0.01 0.00 0.01 0.01 0.01 0.01
0.00 0.00 0.01 0.00 0.00 0.00 0.00 0.00 0.00 0.00 0.00 0.00 0.00 0.00 0.00 0.00 0.00 0.00 0.00 0.00 0.00 0.00 0.00 0.00 0.00 0.00 0.00 0.00 0.00 0.00 0.00 0.01 0.01 0.01 0.00 0.00 0.00 0.00 0.01 0.01 0.01 0.01 0.01 0.01
0.01 0.01 0.01 0.00 0.00 0.00 0.00 0.00 0.00 0.00 0.00 0.00 0.00 0.00 0.00 0.00 0.00 0.00 0.00 0.00 0.00 0.00 0.00 0.00 0.00 0.00 0.00 0.00 0.00 0.00 0.00 0.00 0.01 0.01 0.00 0.00 0.00 0.00 0.00 0.01 0.01 0.01 0.01 0.01
0.02 0.01 0.01 0.01 0.01 0.00 0.00 0.00 0.00 0.00 0.00 0.00 0.00 0.00 0.00 0.00 0.00 0.00 0.00 0.00 0.00 0.00 0.00 0.00 0.00 0.00 0.00 0.00 0.00 0.00 0.00 0.01 0.00 0.00 0.00 0.00 0.00 0.00 0.00 0.00 0.01 0.01 0.01 0.01
0.01 0.01 0.01 0.01 0.01 0.00 0.00 0.00 0.00 0.00 0.00 0.00 0.00 0.00 0.00 0.00 0.00 0.00 0.00 0.00 0.00 0.00 0.00 0.00 0.00 0.00 0.00 0.00 0.00 0.00 0.00 0.00 0.00 0.00 0.00 0.00 0.00 0.00 0.00 0.00 0.00 0.00 0.01 0.01
0.01 0.01 0.02 0.01 0.01 0.00 0.00 0.00 0.00 0.00 0.00 0.00 0.00 0.00 0.00 0.00 0.00 0.00 0.00 0.00 0.00 0.00 0.00 0.00 0.00 0.00 0.00 0.00 0.00 0.00 0.00 0.00 0.00 0.00 0.00 0.00 0.00 0.00 0.00 0.00 0.00 0.01 0.01 0.01
0.01 0.01 0.02 0.01 0.01 0.00 0.00 0.00 0.00 0.00 0.00 0.00 0.00 0.00 0.00 0.00 0.00 0.00 0.00 0.00 0.00 0.00 0.00 0.00 0.00 0.00 0.00 0.00 0.00 0.00 0.00 0.00 0.00 0.00 0.00 0.00 0.00 0.00 0.00 0.00 0.00 0.00 0.00 0.00
0.01 0.01 0.02 0.02 0.01 0.01 0.00 0.00 0.00 0.00 0.00 0.00 0.00 0.00 0.00 0.00 0.00 0.00 0.00 0.00 0.00 0.00 0.00 0.00 0.00 0.00 0.00 0.00 0.00 0.00 0.00 0.00 0.00 0.00 0.00 0.00 0.00 0.00 0.00 0.00 0.00 0.00 0.00 0.00
MSLP
1011.93 1011.92 1011.85 1011.78 1011.75 1011.81 1011.98 1012.31 1012.79 1013.43 1014.21 1015.10 1016.07 1017.05 1018.01 1018.90 1019.69 1020.36 1020.89 1021.28 1021.55 1021.71 1021.80 1021.83 1021.83 1021.82 1021.80 1021.77 1021.73 1021.67 1021.58 1021.44 1021.26 1021.03 1020.77 1020.49 1020.19 1019.89 1019.59 1019.31 1019.02 1018.73 1018.42 1018.08
1012.16 1012.14 1012.04 1011.90 1011.78 1011.74 1011.82 1012.06 1012.48 1013.08 1013.84 1014.72 1015.67 1016.65 1017.60 1018.48 1019.25 1019.89 1020.40 1020.79 1021.07 1021.26 1021.40 1021.51 1021.60 1021.67 1021.73 1021.77 1021.77 1021.72 1021.61 1021.43 1021.19 1020.89 1020.56 1020.21 1019.85 1019.51 1019.20 1018.91 1018.64 1018.37 1018.10 1017.82
1012.30 1012.29 1012.16 1011.97 1011.78 1011.65 1011.65 1011.81 1012.16 1012.70 1013.41 1014.25 1015.19 1016.15 1017.08 1017.94 1018.70 1019.34 1019.85 1020.25 1020.56 1020.80 1021.01 1021.19 1021.37 1021.52 1021.66 1021.75 1021.78 1021.73 1021.59 1021.37 1021.07 1020.70 1020.29 1019.87 1019.46 1019.08 1018.74 1018.45 1018.19 1017.96 1017.74 1017.50
1012.31 1012.29 1012.15 1011.92 1011.68 1011.49 1011.42 1011.51 1011.79 1012.27 1012.93 1013.74 1014.64 1015.57 1016.49 1017.34 1018.10 1018.74 1019.27 1019.70 1020.05 1020.35 1020.62 1020.88 1021.12 1021.35 1021.54 1021.67 1021.72 1021.67 1021.51 1021.24 1020.88 1020.45 1019.98 1019.50 1019.05 1018.63 1018.27 1017.98 1017.74 1017.54 1017.35 1017.17
1012.13 1012.11 1011.95 1011.70 1011.42 1011.20 1011.09 1011.13 1011.37 1011.81 1012.43 1013.20 1014.07 1014.98 1015.89 1016.74 1017.50 1018.16 1018.72 1019.18 1019.58 1019.94 1020.27 1020.58 1020.89 1021.16 1021.39 1021.54 1021.60 1021.54 1021.37 1021.07 1020.67 1020.20 1019.68 1019.16 1018.67 1018.23 1017.86 1017.56 1017.33 1017.16 1017.01 1016.87
1011.75 1011.70 1011.53 1011.28 1011.00 1010.77 1010.65 1010.69 1010.91 1011.33 1011.93 1012.68 1013.53 1014.44 1015.34 1016.20 1016.97 1017.66 1018.25 1018.76 1019.20 1019.60 1019.98 1020.34 1020.68 1020.98 1021.23 1021.39 1021.45 1021.39 1021.20 1020.89 1020.47 1019.97 1019.43 1018.88 1018.38 1017.92 1017.55 1017.26 1017.04 1016.88 1016.76 1016.65
1011.16 1011.09 1010.92 1010.68 1010.43 1010.23 1010.14 1010.20 1010.44 1010.87 1011.48 1012.23 1013.08 1013.99 1014.90 1015.77 1016.57 1017.28 1017.90 1018.45 1018.93 1019.37 1019.77 1020.16 1020.52 1020.83 1021.09 1021.25 1021.31 1021.25 1021.05 1020.73 1020.31 1019.81 1019.26 1018.72 1018.21 1017.76 1017.39 1017.10 1016.89 1016.74 1016.63 1016.54
1010.38 1010.30 1010.15 1009.95 1009.76 1009.63 1009.61 1009.73 1010.02 1010.48 1011.12 1011.88 1012.75 1013.67 1014.59 1015.47 1016.29 1017.02 1017.67 1018.25 1018.76 1019.22 1019.65 1020.04 1020.40 1020.72 1020.97 1021.13 1021.19 1021.12 1020.93 1020.62 1020.21 1019.72 1019.20 1018.67 1018.17 1017.73 1017.36 1017.08 1016.87 1016.73 1016.63 1016.54
1009.48 1009.41 1009.30 1009.17 1009.07 1009.03 1009.11 1009.32 1009.68 1010.21 1010.88 1011.67 1012.55 1013.48 1014.40 1015.29 1016.12 1016.87 1017.54 1018.13 1018.66 1019.13 1019.57 1019.96 1020.31 1020.62 1020.86 1021.01 1021.06 1021.00 1020.82 1020.53 1020.15 1019.69 1019.20 1018.70 1018.22 1017.80 1017.44 1017.17 1016.96 1016.81 1016.71 1016.62
1008.53 1008.50 1008.45 1008.42 1008.43 1008.52 1008.70 1009.02 1009.47 1010.06 1010.77 1011.59 1012.47 1013.40 1014.32 1015.20 1016.02 1016.77 1017.45 1018.04 1018.57 1019.05 1019.47 1019.86 1020.20 1020.49 1020.71 1020.86 1020.91 1020.86 1020.70 1020.44 1020.09 1019.67 1019.22 1018.75 1018.31 1017.91 1017.56 1017.29 1017.08 1016.92 1016.80 1016.70
1007.62 1007.65 1007.70 1007.78 1007.92 1008.13 1008.44 1008.86 1009.39 1010.04 1010.78 1011.61 1012.49 1013.39 1014.28 1015.14 1015.94 1016.67 1017.33 1017.91 1018.43 1018.89 1019.31 1019.68 1020.00 1020.28 1020.49 1020.63 1020.68 1020.64 1020.51 1020.28 1019.97 1019.60 1019.19 1018.77 1018.36 1017.98 1017.65 1017.38 1017.16 1016.99 1016.85 1016.72
1006.82 1006.94 1007.10 1007.30 1007.57 1007.91 1008.33 1008.84 1009.44 1010.12 1010.88 1011.69 1012.54 1013.40 1014.24 1015.05 1015.81 1016.50 1017.13 1017.69 1018.19 1018.63 1019.03 1019.38 1019.69 1019.95 1020.15 1020.29 1020.35 1020.33 1020.22 1020.03 1019.76 1019.44 1019.08 1018.70 1018.32 1017.97 1017.65 1017.38 1017.15 1016.95 1016.79 1016.63
1006.19 1006.40 1006.67 1007.00 1007.39 1007.84 1008.35 1008.93 1009.57 1010.27 1011.02 1011.79 1012.59 1013.39 1014.17 1014.91 1015.61 1016.25 1016.84 1017.37 1017.84 1018.26 1018.64 1018.98 1019.27 1019.52 1019.71 1019.84 1019.91 1019.90 1019.82 1019.67 1019.45 1019.17 1018.85 1018.52 1018.17 1017.84 1017.53 1017.26 1017.01 1016.80 1016.60 1016.40
1005.72 1006.04 1006.41 1006.85 1007.34 1007.87 1008.46 1009.08 1009.75 1010.44 1011.15 1011.88 1012.61 1013.34 1014.04 1014.71 1015.35 1015.94 1016.48 1016.97 1017.42 1017.82 1018.18 1018.50 1018.77 1019.01 1019.19 1019.33 1019.40 1019.40 1019.35 1019.22 1019.04 1018.80 1018.53 1018.22 1017.91 1017.60 1017.30 1017.02 1016.76 1016.52 1016.29 1016.06
1005.40 1005.81 1006.28 1006.80 1007.37 1007.97 1008.60 1009.25 1009.91 1010.58 1011.25 1011.92 1012.59 1013.24 1013.87 1014.48 1015.05 1015.59 1016.09 1016.55 1016.97 1017.35 1017.70 1018.00 1018.26 1018.48 1018.66 1018.78 1018.85 1018.87 1018.82 1018.72 1018.57 1018.36 1018.12 1017.85 1017.56 1017.26 1016.97 1016.69 1016.41 1016.15 1015.89 1015.63
1005.18 1005.66 1006.20 1006.79 1007.42 1008.07 1008.72 1009.38 1010.03 1010.67 1011.30 1011.92 1012.53 1013.12 1013.69 1014.24 1014.76 1015.26 1015.73 1016.17 1016.57 1016.93 1017.25 1017.54 1017.79 1017.99 1018.15 1018.26 1018.32 1018.33 1018.29 1018.20 1018.06 1017.87 1017.65 1017.40 1017.14 1016.85 1016.57 1016.28 1016.00 1015.72 1015.43 1015.15
1005.01 1005.55 1006.15 1006.79 1007.45 1008.12 1008.79 1009.45 1010.08 1010.70 1011.30 1011.88 1012.44 1012.98 1013.51 1014.03 1014.52 1014.99 1015.44 1015.86 1016.24 1016.58 1016.89 1017.15 1017.38 1017.55 1017.69 1017.77 1017.81 1017.81 1017.76 1017.66 1017.53 1017.35 1017.15 1016.91 1016.66 1016.39 1016.11 1015.82 1015.53 1015.24 1014.94 1014.63
1004.86 1005.45 1006.08 1006.76 1007.44 1008.13 1008.80 1009.45 1010.07 1010.67 1011.24 1011.79 1012.33 1012.85 1013.36 1013.85 1014.33 1014.79 1015.22 1015.62 1015.98 1016.31 1016.59 1016.83 1017.02 1017.16 1017.26 1017.31 1017.32 1017.29 1017.22 1017.11 1016.97 1016.80 1016.59 1016.37 1016.12 1015.86 1015.58 1015.30 1015.01 1014.71 1014.41 1014.10
1004.73 1005.35 1006.01 1006.70 1007.40 1008.09 1008.75 1009.39 1010.00 1010.59 1011.14 1011.68 1012.20 1012.71 1013.21 1013.69 1014.16 1014.61 1015.03 1015.41 1015.76 1016.06 1016.31 1016.51 1016.67 1016.77 1016.83 1016.84 1016.82 1016.75 1016.65 1016.53 1016.37 1016.19 1015.98 1015.76 1015.52 1015.26 1015.00 1014.72 1014.43 1014.14 1013.84 1013.52
1004.64 1005.28 1005.95 1006.65 1007.34 1008.02 1008.67 1009.30 1009.89 1010.46 1011.01 1011.54 1012.05 1012.55 1013.04 1013.52 1013.97 1014.41 1014.81 1015.17 1015.49 1015.76 1015.97 1016.14 1016.25 1016.31 1016.33 1016.30 1016.24 1016.14 1016.02 1015.87 1015.70 1015.51 1015.30 1015.08 1014.84 1014.60 1014.34 1014.07 1013.79 1013.50 1013.21 1012.91
1004.61 1005.26 1005.94 1006.63 1007.30 1007.96 1008.58 1009.18 1009.76 1010.30 1010.83 1011.34 1011.85 1012.34 1012.81 1013.27 1013.71 1014.12 1014.49 1014.83 1015.11 1015.34 1015.52 1015.64 1015.71 1015.74 1015.72 1015.66 1015.57 1015.45 1015.30 1015.14 1014.96 1014.76 1014.56 1014.34 1014.11 1013.88 1013.63 1013.37 1013.11 1012.83 1012.54 1012.25
1004.68 1005.33 1006.00 1006.66 1007.30 1007.92 1008.50 1009.06 1009.60 1010.11 1010.61 1011.10 1011.58 1012.04 1012.49 1012.92 1013.33 1013.70 1014.04 1014.33 1014.57 1014.76 1014.90 1014.99 1015.03 1015.03 1014.98 1014.90 1014.80 1014.67 1014.52 1014.35 1014.18 1013.99 1013.79 1013.58 1013.37 1013.14 1012.91 1012.67 1012.41 1012.15 1011.87 1011.58
1004.83 1005.48 1006.12 1006.74 1007.33 1007.89 1008.42 1008.93 1009.42 1009.89 1010.34 1010.79 1011.23 1011.66 1012.07 1012.46 1012.82 1013.15 1013.44 1013.69 1013.89 1014.04 1014.14 1014.20 1014.22 1014.20 1014.15 1014.07 1013.97 1013.85 1013.71 1013.56 1013.39 1013.22 1013.04 1012.85 1012.65 1012.44 1012.23 1012.00 1011.76 1011.51 1011.24 1010.96
1005.06 1005.68 1006.27 1006.84 1007.37 1007.86 1008.33 1008.78 1009.21 1009.62 1010.03 1010.43 1010.82 1011.21 1011.57 1011.91 1012.22 1012.50 1012.74 1012.94 1013.10 1013.21 1013.29 1013.34 1013.35 1013.33 1013.29 1013.23 1013.15 1013.05 1012.94 1012.81 1012.67 1012.52 1012.37 1012.20 1012.02 1011.83 1011.64 1011.43 1011.20 1010.96 1010.71 1010.44
1005.31 1005.88 1006.42 1006.92 1007.38 1007.81 1008.21 1008.59 1008.96 1009.33 1009.69 1010.04 1010.38 1010.71 1011.03 1011.32 1011.58 1011.81 1012.00 1012.16 1012.29 1012.38 1012.44 1012.48 1012.50 1012.50 1012.48 1012.44 1012.39 1012.33 1012.25 1012.16 1012.05 1011.93 1011.80 1011.66 1011.50 1011.34 1011.16 1010.97 1010.77 1010.55 1010.31 1010.06
1005.50 1006.02 1006.50 1006.94 1007.33 1007.70 1008.05 1008.38 1008.70 1009.02 1009.34 1009.65 1009.95 1010.24 1010.51 1010.75 1010.97 1011.16 1011.32 1011.44 1011.54 1011.62 1011.68 1011.72 1011.76 1011.77 1011.78 1011.78 1011.76 1011.73 1011.68 1011.62 1011.54 1011.45 1011.34 1011.22 1011.09 1010.94 1010.79 1010.63 1010.45 1010.26 1010.05 1009.82
1005.60 1006.07 1006.49 1006.87 1007.22 1007.54 1007.84 1008.14 1008.43 1008.72 1009.01 1009.30 1009.57 1009.83 1010.07 1010.28 1010.47 1010.63 1010.75 1010.86 1010.94 1011.01 1011.07 1011.12 1011.16 1011.20 1011.23 1011.25 1011.26 1011.25 1011.23 1011.18 1011.12 1011.04 1010.95 1010.84 1010.73 1010.61 1010.48 1010.35 1010.20 1010.05 1009.88 1009.70
Thickness
5716 5719 5718 5715 5715 5715 5711 5711 5705 5707 5706 5706 5702 5696 5688 5680 5674 5667 5659 5653 5648 5642 5637 5631 5627 5623 5620 5617 5615 5612 5609 5605 5602 5599 5596 5593 5590 5588 5586 5584 5582 5580 5579 5578
5706 5713 5712 5708 5711 5712 5709 5709 5707 5704 5700 5705 5699 5692 5683 5676 5669 5662 5656 5650 5644 5638 5632 5627 5623 5619 5616 5613 5611 5608 5605 5602 5598 5595 5592 5590 5587 5585 5583 5580 5579 5577 5576 5574
5698 5708 5704 5698 5709 5709 5707 5709 5705 5700 5701 5699 5690 5684 5678 5672 5665 5659 5653 5647 5640 5634 5629 5624 5621 5617 5614 5611 5609 5605 5602 5599 5596 5593 5590 5587 5585 5582 5580 5578 5576 5574 5573 5572
5696 5693 5679 5702 5717 5713 5706 5706 5708 5703 5700 5695 5689 5683 5676 5670 5664 5657 5651 5644 5638 5632 5627 5622 5619 5615 5612 5609 5606 5603 5600 5597 5595 5591 5588 5585 5582 5580 5577 5575 5574 5572 5571 5570
5690 5687 5690 5701 5708 5708 5700 5698 5704 5700 5694 5690 5685 5678 5672 5668 5663 5656 5650 5643 5636 5630 5625 5621 5616 5613 5610 5606 5604 5602 5599 5596 5593 5590 5587 5584 5581 5578 5576 5574 5573 5572 5571 5570
5687 5679 5676 5695 5710 5712 5701 5690 5702 5698 5691 5686 5680 5676 5672 5665 5659 5653 5647 5640 5634 5628 5623 5618 5614 5611 5607 5605 5603 5600 5598 5595 5592 5589 5586 5583 5580 5577 5575 5574 5573 5572 5571 5570
5683 5681 5690 5704 5707 5702 5683 5687 5699 5697 5691 5685 5681 5679 5672 5664 5656 5650 5643 5637 5632 5627 5622 5617 5613 5609 5606 5604 5601 5599 5597 5594 5591 5588 5585 5583 5579 5577 5575 5574 5573 5572 5571 5571
5685 5679 5683 5703 5700 5693 5691 5697 5696 5693 5689 5683 5678 5672 5667 5660 5653 5646 5640 5635 5630 5625 5620 5616 5612 5608 5605 5602 5600 5598 5595 5592 5589 5587 5585 5583 5580 5577 5576 5574 5574 5573 5572 5572
5691 5690 5697 5701 5698 5698 5697 5693 5691 5689 5686 5680 5673 5668 5663 5656 5650 5644 5639 5633 5629 5624 5619 5614 5611 5608 5604 5602 5600 5597 5594 5591 5589 5586 5584 5583 5581 5579 5578 5576 5577 5577 5577 5576
5688 5692 5696 5696 5697 5696 5695 5691 5689 5686 5683 5677 5670 5666 5660 5654 5648 5642 5638 5632 5628 5623 5618 5614 5611 5608 5605 5602 5599 5597 5594 5591 5589 5587 5585 5583 5582 5582 5581 5580 5579 5578 5578 5577
5684 5690 5691 5692 5693 5692 5690 5688 5685 5682 5679 5674 5669 5663 5659 5652 5647 5642 5637 5632 5627 5623 5619 5614 5611 5608 5605 5602 5599 5597 5594 5592 5590 5589 5587 5585 5584 5583 5582 5579 5578 5575 5577 5577
5687 5692 5691 5690 5691 5690 5685 5683 5680 5677 5673 5671 5667 5662 5657 5652 5647 5642 5637 5632 5628 5623 5620 5616 5613 5609 5607 5604 5601 5598 5595 5593 5593 5591 5590 5589 5588 5586 5581 5579 5576 5574 5572 5571
5690 5693 5693 5692 5689 5688 5684 5681 5678 5675 5671 5668 5665 5661 5657 5652 5647 5643 5638 5633 5629 5625 5621 5618 5615 5611 5609 5606 5603 5600 5597 5596 5595 5594 5593 5592 5591 5590 5588 5584 5580 5578 5576 5574
5687 5686 5683 5685 5685 5684 5681 5679 5676 5674 5671 5668 5664 5659 5655 5651 5647 5643 5639 5635 5632 5628 5624 5620 5617 5614 5611 5608 5605 5602 5600 5598 5597 5597 5596 5595 5594 5593 5592 5591 5590 5590 5584 5579
5681 5684 5684 5685 5683 5681 5678 5675 5672 5670 5668 5665 5662 5658 5654 5650 5647 5644 5640 5637 5633 5629 5626 5623 5619 5616 5614 5612 5608 5606 5604 5603 5601 5601 5600 5599 5597 5596 5596 5594 5594 5593 5594 5590
5679 5681 5681 5680 5679 5677 5675 5673 5671 5669 5668 5665 5662 5658 5655 5652 5648 5645 5642 5638 5634 5631 5628 5625 5622 5620 5618 5615 5611 5609 5607 5603 5601 5602 5603 5602 5601 5599 5599 5597 5596 5596 5596 5596
5675 5675 5676 5676 5677 5677 5676 5675 5674 5672 5670 5666 5663 5660 5656 5652 5648 5645 5642 5640 5637 5634 5631 5628 5625 5624 5622 5618 5615 5615 5614 5610 5602 5604 5605 5605 5604 5603 5602 5601 5600 5599 5599 5598
5680 5680 5680 5680 5679 5677 5676 5676 5676 5674 5671 5669 5666 5661 5657 5653 5650 5647 5645 5642 5638 5635 5633 5631 5629 5627 5625 5622 5618 5618 5618 5616 5613 5611 5610 5608 5606 5605 5604 5603 5602 5601 5602 5602
5680 5680 5681 5681 5681 5679 5678 5677 5676 5675 5674 5671 5667 5662 5659 5656 5653 5650 5647 5643 5640 5638 5636 5635 5629 5628 5627 5624 5621 5620 5620 5619 5617 5615 5613 5609 5608 5608 5607 5606 5605 5604 5604 5603
5679 5679 5680 5680 5680 5679 5678 5678 5677 5675 5674 5672 5668 5663 5660 5658 5656 5652 5649 5646 5646 5646 5642 5637 5633 5631 5630 5628 5622 5626 5625 5622 5620 5618 5616 5615 5613 5611 5610 5609 5608 5607 5605 5604
5679 5679 5679 5679 5679 5679 5680 5679 5677 5675 5674 5672 5668 5665 5662 5660 5658 5655 5651 5650 5649 5647 5643 5637 5636 5635 5634 5632 5624 5629 5629 5626 5623 5622 5620 5618 5616 5614 5612 5611 5610 5608 5607 5606
5679 5679 5679 5678 5678 5678 5679 5679 5679 5677 5674 5672 5670 5668 5665 5661 5659 5657 5655 5654 5652 5646 5645 5644 5642 5638 5636 5631 5632 5633 5631 5629 5626 5624 5622 5619 5617 5615 5614 5612 5611 5609 5608 5608
5679 5679 5679 5678 5678 5678 5678 5679 5679 5678 5675 5674 5672 5670 5668 5666 5665 5661 5658 5657 5655 5647 5647 5647 5642 5636 5632 5632 5635 5635 5633 5630 5628 5626 5624 5621 5619 5616 5614 5612 5611 5609 5608 5607
5677 5677 5677 5678 5678 5677 5677 5678 5679 5678 5677 5676 5675 5672 5670 5667 5665 5665 5664 5657 5653 5647 5649 5646 5639 5634 5629 5636 5637 5636 5635 5632 5630 5628 5626 5623 5620 5617 5615 5613 5611 5609 5608 5606
5676 5676 5676 5676 5676 5678 5677 5678 5677 5676 5676 5676 5676 5673 5672 5671 5668 5667 5664 5660 5653 5648 5650 5646 5638 5634 5635 5639 5639 5638 5636 5634 5630 5627 5624 5622 5620 5617 5615 5612 5609 5607 5605 5603
5675 5676 5677 5678 5680 5680 5681 5681 5680 5679 5679 5677 5676 5675 5674 5672 5669 5667 5663 5661 5657 5650 5652 5651 5645 5638 5641 5641 5639 5637 5634 5631 5629 5626 5624 5621 5619 5616 5614 5611 5607 5604 5602 5600
5676 5677 5676 5678 5680 5682 5683 5683 5683 5682 5682 5680 5678 5676 5674 5672 5670 5667 5664 5662 5659 5655 5654 5653 5650 5646 5644 5642 5639 5636 5633 5630 5628 5625 5622 5620 5617 5614 5611 5607 5604 5601 5598 5595